Preview of NWS' New Version of Forecast
This preview is not operational and should not be used for support decisions.

Regional Weather Roundup (RWR)

Issued by Gray - Portland, ME (GYX)

                            
000
ASUS41 KGYX 231505
RWRGYX
WEATHER ROUNDUP FOR MAINE AND NEW HAMPSHIRE
NATIONAL WEATHER SERVICE GRAY ME
1100 AM EDT THU MAY 23 2019

MEZ002-005-006-010-012-015-018-020-021-024-026-027-029-231600-
MAINE
  
CITY           SKY/WX    TMP DP  RH WIND       PRES   REMARKS
PORTLAND       PTSUNNY   60  45  57 SE13      30.13F                  
SANFORD        CLOUDY    63  47  55 VRB6      30.13F                  
BAR HARBOR     CLOUDY    58  42  55 S8        30.17F                  
WISCASSET      FAIR      62  43  49 S12G17    30.15F                  
ROCKLAND       FAIR      61  45  55 SW10G18   30.16F                  
FRYEBURG       CLOUDY    63  45  51 CALM      30.11F                  
LEWISTONAUBURN FAIR      65  46  50 S8        30.11F                  
AUGUSTA        FAIR      64  42  44 SW10G23   30.13F                  
WATERVILLE     FAIR      65  45  48 VRB3      30.10F                  
BANGOR         FAIR      63  42  46 SW6       30.15F                  
GREENVILLE       N/A     61  38  42 S8        30.09F                  
MILLINOCKET    FAIR      64  40  41 VRB6      30.14F                  
HOULTON        CLOUDY    59  40  49 SW7       30.14S                  
PRESQUE ISLE   CLOUDY    57  40  52 VRB5      30.14F                  
FRENCHVILLE    PTSUNNY   58  37  45 SE7       30.12F                  
CARIBOU        FAIR      58  40  51 S5        30.12F                  
$$

NHZ002-005-008-009-011-012-014-231600-
NEW HAMPSHIRE
  
CITY           SKY/WX    TMP DP  RH WIND       PRES   REMARKS
PORTSMOUTH     PTSUNNY   66  47  50 SE9       30.11F                  
ROCHESTER      CLOUDY    64  47  53 VRB6      30.12F                  
NASHUA         CLOUDY    67  51  56 S8        30.12F                  
MANCHESTER     PTSUNNY   65  47  52 S13G18    30.10F                  
CONCORD        CLOUDY    63  47  55 SE9       30.11F                  
LACONIA        CLOUDY    58  45  62 NE3       30.11F                  
PLYMOUTH       FAIR      61  47  60 E3        30.10F                  
BERLIN         NOT AVBL                                               
WHITEFIELD     CLOUDY    65  42  43 CALM      30.06F                  
JAFFREY        FAIR      64  49  57 S14G20    30.11F                  
KEENE          FAIR      66  51  58 S13       30.10F                  
LEBANON        FAIR      67  47  48 S7        30.06F                  
MT WASHINGTON  CLOUDY    39  36  87 W26         N/A                   
$$

VTZ005-007-008-231600-
VERMONT
  
CITY           SKY/WX    TMP DP  RH WIND       PRES   REMARKS
ST JOHNSBURY     N/A     61  42  49 MISG      30.05F                  
MONTPELIER     FAIR      64  44  48 S12       30.09F                  
BURLINGTON     PTSUNNY   69  43  38 S17G24    30.00F                  
$$

MAZ007-012-024-CTZ003-RIZ002-NYZ038-NYZ072-231600-
SOUTHERN NEW ENGLAND AND NY
  
CITY           SKY/WX    TMP DP  RH WIND       PRES   REMARKS
BOSTON         CLOUDY    64  48  56 S15       30.15F                  
WORCESTER      CLOUDY    59  50  72 S17G25    30.14F                  
NANTUCKET      CLOUDY    54  45  71 S13       30.24F                  
PROVIDENCE     CLOUDY    59  51  75 S14       30.19F                  
HARTFORD       PTSUNNY   65  51  60 SW16G23   30.13F                  
ALBANY         FAIR      69  52  54 SE14      30.05F                  
NEW YORK CITY  PTSUNNY   65  45  48 S12G20    30.15F                  
$$

ANZ081-ANZ082-ANZ150-NHZ014-MEZ023>029-231600-
COASTAL MARINE OBSERVATIONS
  
STATION/POSITION TIME  TEMP    WIND        PRES    WAVE
                       AIR SEA DIR/SP/G            HT/PER
                 (UTC) (F)     (DEG/KT/KT) (MB)    (FT/S)
ISLE OF SHOALS   1400   51     170/ 17/ 19 1021.2F
JEFFREYS LEDGE   1438      48                N/A     2/ 3
GEORGES BANK BUO 1450   47 44   CALM  /  2 1026.2F   3/ 9
$$

.............KEY..............
   WCI - WIND CHILL
   TC  - TEMPERATURE IN CELSIUS
   VSB - VISIBILITY IN MILES
   HX  - HEAT INDEX
   FAIR- INDICATES FEW OR NO CLOUDS BELOW 12,000 FT, WITH NO 
         SIGNIFICANT WEATHER AND/OR OBSTRUCTIONS TO VISIBILITY.